Location: Gro�sch�nbrunn
(49.5760°N, 11.8868°E)
Time: 17:26:34
(UTC+00:00)

CENTAUR R/B - Pass Details

Date: 18 September 2020
Orbit: 753 x 1435 km, 63.5° (Epoch: 26 October)

Event Time Altitude Azimuth Distance (km) Brightness Sun altitude
Rises 19:23:42 0° 316° (NW) 4,078 7.1 -20.3°
Reaches altitude 10° 19:26:19 10° 317° (NW) 3,198 6.2 -20.6°
Maximum altitude 19:34:16 86° 48° (NE) 1,362 3.1 -21.8°
Enters shadow 19:38:32 35° 136° (SE) 2,108 3.7 -22.4°
